Hourly Data Report for July 01, 2021

BANCROFT AUTO
ONTARIO
Current Station Operator: ECCC - MSC

45°04'17.000" N
77°52'44.000" W
330.70 m
616I001
71294
WRK

Download Data

Hourly Data (July 2021)
Hourly Data Report for July 1, 2021
TIME
LST
Temp Definition
°C
Dew Point Definition
°C
Rel Hum Definition
%
Precip. Amount Definition
mm

Wind Dir Definition
10's deg

Wind Spd Definition
km/h
Visibility Definition
km
Stn Press Definition
kPa
Hmdx Definition


Wind Chill Definition


Weather Definition


00:00 15.7 15.2 97 0.0 26 1   97.44     LegendNANA
01:00 15.4 15.1 98 0.0 30 2   97.41     LegendNANA
02:00 15.5 15.2 98 0.0 0 1   97.42     LegendNANA
03:00 15.1 14.8 98 0.0   0   97.38     LegendNANA
04:00 14.7 14.4 98 0.0 30 1   97.39     LegendNANA
05:00 15.7 15.3 98 0.0 31 1   97.40     LegendNANA
06:00 16.1 15.5 96 0.0 31 4   97.41     LegendNANA
07:00 17.3 15.9 91 0.0 3 2   97.42     LegendNANA
08:00 18.0 14.6 81 0.0 6 7   97.44     LegendNANA
09:00 19.4 14.5 73 0.0 7 10   97.39     LegendNANA
10:00 20.4 13.6 65 0.0 7 7   97.38     LegendNANA
11:00 20.8 13.8 64 0.0 6 4   97.37     LegendNANA
12:00 16.6 10.8 69 0.0 1 15   97.40     LegendNANA
13:00 15.9 14.1 89 0.8 36 6   97.41     LegendNANA
14:00 19.3 15.3 77 0.0 3 11   97.38     LegendNANA
15:00 19.2 14.3 73 0.0 5 12   97.36     LegendNANA
16:00 19.2 13.5 69 0.0 4 9   97.34     LegendNANA
17:00 19.7 13.2 66 0.0 2 9   97.32     LegendNANA
18:00 19.0 13.9 72 0.0 2 7   97.33     LegendNANA
19:00 18.6 13.2 71 0.0 2 11   97.37     LegendNANA
20:00 17.0 13.2 78 0.0 34 4   97.37     LegendNANA
21:00 15.9 13.9 88 0.0 32 2   97.39     LegendNANA
22:00 16.2 14.0 87 0.0 2 3   97.38     LegendNANA
23:00 15.4 14.4 94 0.4 29 2   97.33     LegendNANA

Notes on Data Quality.

Legend

  • E = Estimated
  • M = Missing
  • NA = Not Available*
  • [empty] = Indicates an unobserved value
Date modified: